Location: Memmingen
(47.9830°N, 10.1733°E)
Time: 08:39:08
(UTC+01:00)

Amateur Radio Satellites - All Passes

Search period start: 16 January 2018 08:09
Search period end: 17 January 2018 08:09
Location: Memmingen, 47.9830°N, 10.1733°E

Satellite Date Start Highest point End Downlink Frequencies (MHz)
Time Altitude Azimuth
XW-2A 16 Jan 08:12:38 08:16:01 63° 102° (ESE) 08:19:20 145.665 - 145.685
RS-15 16 Jan 08:14:23 08:24:59 36° 106° (ESE) 08:35:27 29.354- 29.394
AAUSAT CUBESAT 2 16 Jan 08:15:54 08:20:02 78° 104° (ESE) 08:24:07 437.432
SEEDS 16 Jan 08:16:38 08:20:39 46° 289° (WNW) 08:24:37 437.485
CUTE 1.7 + AOD 2 16 Jan 08:18:01 08:21:42 30° 293° (WNW) 08:25:22 437.475
ZACube-1 16 Jan 08:23:57 08:28:34 68° 102° (ESE) 08:33:05 437.345
AO-73 16 Jan 08:34:23 08:38:59 76° 102° (ESE) 08:43:31 145.935
SO-50 16 Jan 08:49:19 08:53:15 29° 323° (NW) 08:57:15 436.795
HO-68 16 Jan 08:53:18 08:59:46 39° 301° (WNW) 09:06:14 435.675
TIGRISAT 16 Jan 08:59:01 09:03:21 66° 73° (ENE) 09:07:50 435.000
FALCONSAT 3 16 Jan 09:02:54 09:04:14 12° 183° (S) 09:05:35 435.103
CUBEBUG 2 16 Jan 09:07:01 09:10:23 20° 299° (WNW) 09:13:45 437.445
UNISAT 6 16 Jan 09:12:41 09:17:04 84° 257° (WSW) 09:21:37 437.425
Oscar 11 16 Jan 09:14:16 09:18:36 68° 286° (WNW) 09:22:53 .
YUBILEINY 16 Jan 09:22:52 09:30:17 29° 62° (ENE) 09:37:36 435.215
UWE-3 16 Jan 09:24:19 09:27:50 21° 298° (WNW) 09:31:21 435.000/436.395/437.385
FO-29 16 Jan 09:30:37 09:34:40 16° 272° (W) 09:38:30 435.910
PRISM 16 Jan 09:34:25 09:38:15 41° 69° (ENE) 09:42:06 437.425
QB50P2 16 Jan 09:41:19 09:41:40 10° 55° (NE) 09:42:01 145.880/145.840
DELFI C3 16 Jan 09:46:30 09:50:22 55° 100° (E) 09:54:12 145.870
O/OREOS (USA 219) 16 Jan 09:47:12 09:50:08 17° 46° (NE) 09:53:02 437.305
XW-2A 16 Jan 09:47:20 09:48:11 11° 299° (WNW) 09:49:03 145.665 - 145.685
AIST 2D 16 Jan 09:47:36 09:50:24 22° 67° (ENE) 09:53:12 435.315
AAUSAT CUBESAT 2 16 Jan 09:53:04 09:54:53 13° 301° (WNW) 09:56:43 437.432
ZACube-1 16 Jan 10:01:19 10:04:19 17° 300° (WNW) 10:07:17 437.345
Max Valier Satellite 16 Jan 10:02:23 10:06:04 56° 100° (E) 10:09:42 145.860
BEESAT 3 16 Jan 10:10:54 10:11:26 10° 109° (ESE) 10:11:59 437.485
EO-79 16 Jan 10:11:32 10:14:23 18° 61° (ENE) 10:17:14 145.935-145.965
AO-73 16 Jan 10:11:55 10:14:37 16° 301° (WNW) 10:17:19 145.935
DUCHIFAT 1 16 Jan 10:17:52 10:20:27 16° 60° (ENE) 10:23:03 145.980
RS-15 16 Jan 10:24:03 10:36:28 81° 310° (NW) 10:48:37 29.354- 29.394
SO-50 16 Jan 10:33:37 10:35:13 12° 347° (NNW) 10:36:50 436.795
EO-88 16 Jan 10:34:47 10:38:27 90° 183° (S) 10:42:04 145.990 - 145.960
TIGRISAT 16 Jan 10:38:03 10:40:32 15° 272° (W) 10:43:04 435.000
ESTCUBE 1 16 Jan 10:38:06 10:40:11 13° 88° (E) 10:42:14 437.505/2401.250
LO-87 16 Jan 10:39:56 10:41:55 14° 91° (E) 10:43:53 145.935 - 145.965
POLYITAN 1 16 Jan 10:43:44 10:47:34 34° 68° (ENE) 10:51:27 437.675
HO-68 16 Jan 10:44:56 10:45:34 10° 323° (NW) 10:46:13 435.675
Oscar 19 16 Jan 10:57:35 10:58:37 11° 50° (NE) 10:59:38 437.125/150
NANOSAT C BR1 16 Jan 11:04:32 11:08:35 49° 71° (ENE) 11:12:42 145.865
PRISM 16 Jan 11:10:41 11:13:42 20° 267° (W) 11:16:43 437.425
QB50P2 16 Jan 11:12:27 11:16:40 75° 74° (ENE) 11:20:56 145.880/145.840
YUBILEINY 16 Jan 11:19:16 11:28:01 75° 265° (W) 11:36:40 435.215
AIST 2D 16 Jan 11:20:21 11:23:26 28° 264° (W) 11:26:32 435.315
DELFI C3 16 Jan 11:22:20 11:24:41 16° 298° (WNW) 11:27:03 145.870
PCSat 16 Jan 11:23:00 11:28:20 63° 119° (ESE) 11:33:43 145.827
O/OREOS (USA 219) 16 Jan 11:25:38 11:30:08 79° 245° (WSW) 11:34:35 437.305
Gurwin Techsat 1B 16 Jan 11:35:34 11:38:55 17° 56° (NE) 11:42:17 435.225
Max Valier Satellite 16 Jan 11:37:27 11:39:26 14° 298° (WNW) 11:41:25 145.860
BUGSAT 1 16 Jan 11:40:23 11:43:46 26° 65° (ENE) 11:47:11 437.445
SPROUT 16 Jan 11:42:34 11:44:58 14° 89° (E) 11:47:20 437.525
BEESAT 3 16 Jan 11:44:17 11:48:16 85° 127° (SE) 11:52:17 437.485
EO-79 16 Jan 11:45:36 11:49:44 55° 259° (W) 11:53:56 145.935-145.965
DUCHIFAT 1 16 Jan 11:51:29 11:55:38 63° 258° (WSW) 11:59:51 145.980
LO-87 16 Jan 12:12:03 12:15:34 47° 288° (WNW) 12:19:04 145.935 - 145.965
AO-7 16 Jan 12:12:06 12:17:18 18° 39° (NE) 12:22:30 .
ESTCUBE 1 16 Jan 12:13:01 12:17:33 77° 285° (WNW) 12:22:00 437.505/2401.250
SO-50 16 Jan 12:16:19 12:17:46 11° 12° (NNE) 12:19:14 436.795
BEESAT 2 16 Jan 12:18:34 12:22:30 55° 123° (ESE) 12:26:28 435.950
POLYITAN 1 16 Jan 12:19:51 12:23:24 26° 266° (W) 12:26:59 437.675
Oscar 19 16 Jan 12:31:47 12:36:52 57° 70° (ENE) 12:41:59 437.125/150
VELOX 1 16 Jan 12:37:26 12:41:15 28° 95° (E) 12:45:03 145.980
RS-15 16 Jan 12:39:37 12:50:59 41° 339° (NNW) 13:02:01 29.354- 29.394
NANOSAT C BR1 16 Jan 12:41:40 12:44:34 18° 269° (W) 12:47:30 145.865
QB50P2 16 Jan 12:51:17 12:52:59 12° 272° (W) 12:54:42 145.880/145.840
AO-91 16 Jan 12:59:42 13:03:05 77° 258° (WSW) 13:06:31 145.960
PCSat 16 Jan 13:07:26 13:12:08 29° 320° (NW) 13:16:53 145.827
DX 1 16 Jan 13:12:08 13:14:26 14° 90° (E) 13:16:43 434.975-435.025
Gurwin Techsat 1B 16 Jan 13:12:52 13:18:11 86° 252° (WSW) 13:23:33 435.225
BUGSAT 1 16 Jan 13:15:19 13:18:59 33° 263° (W) 13:22:44 437.445
SPROUT 16 Jan 13:17:00 13:21:16 64° 287° (WNW) 13:25:31 437.525
YUBILEINY 16 Jan 13:18:10 13:23:14 17° 287° (WNW) 13:28:16 435.215
BEESAT 3 16 Jan 13:23:29 13:26:19 18° 327° (NNW) 13:29:09 437.485
ITAMSAT 1 16 Jan 13:28:57 13:31:39 14° 54° (NE) 13:34:22 435.822/435.867
ESTCUBE 1 16 Jan 13:52:11 13:53:33 11° 305° (NW) 13:54:55 437.505/2401.250
AO-85 16 Jan 13:54:58 13:58:57 77° 126° (SE) 14:03:17 145.980
SO-50 16 Jan 13:55:51 13:59:48 26° 36° (NE) 14:03:49 436.795
BEESAT 2 16 Jan 13:57:09 14:00:29 24° 323° (NW) 14:03:50 435.950
AO-7 16 Jan 14:00:17 14:08:24 59° 62° (ENE) 14:16:35 .
Oscar 19 16 Jan 14:12:33 14:16:32 22° 268° (W) 14:20:33 437.125/150
VELOX 1 16 Jan 14:13:46 14:17:43 33° 293° (WNW) 14:21:39 145.980
50 SAT 16 Jan 14:14:49 14:17:54 56° 101° (E) 14:20:58 437.505
M-CUBED/EXP-1 PRIME 16 Jan 14:24:26 14:27:14 17° 56° (NE) 14:29:55 437.505
BEESAT 16 Jan 14:40:17 14:42:34 13° 88° (E) 14:44:52 436.000
UKube-1 16 Jan 14:46:33 14:50:53 76° 104° (ESE) 14:55:11 .
DX 1 16 Jan 14:46:45 14:51:05 68° 287° (WNW) 14:55:23 434.975-435.025
PCSat 16 Jan 14:55:30 14:57:25 12° 345° (NNW) 14:59:19 145.827
RS-15 16 Jan 14:56:25 15:07:24 37° 13° (NNE) 15:17:53 29.354- 29.394
Gurwin Techsat 1B 16 Jan 14:56:29 14:58:55 13° 274° (W) 15:01:22 435.225
ITAMSAT 1 16 Jan 15:05:09 15:10:19 81° 72° (ENE) 15:15:31 435.822/435.867
CUBESAT XI-V 16 Jan 15:08:42 15:10:09 11° 86° (E) 15:11:36 437.345
MOZHAYETS 4 16 Jan 15:17:46 15:22:18 49° 99° (E) 15:26:47
ITUPSAT 1 16 Jan 15:32:51 15:37:24 39° 98° (E) 15:41:54 437.325
SO-50 16 Jan 15:35:59 15:40:39 65° 236° (SW) 15:45:22 436.795
AO-85 16 Jan 15:36:43 15:39:55 21° 328° (NNW) 15:43:19 145.980
DOVE 4 16 Jan 15:43:26 15:47:34 43° 70° (ENE) 15:51:33 437.250
50 SAT 16 Jan 15:48:53 15:49:10 10° 299° (WNW) 15:49:29 437.505
AO-7 16 Jan 15:53:55 16:01:31 38° 263° (W) 16:09:12 .
HO-68 16 Jan 15:54:24 15:57:55 14° 43° (NE) 16:01:26 435.675
M-CUBED/EXP-1 PRIME 16 Jan 15:56:46 16:01:12 69° 252° (WSW) 16:05:24 437.505
CUTE-I 16 Jan 16:02:26 16:05:35 16° 55° (NE) 16:08:43 437.470
BEESAT 16 Jan 16:16:08 16:20:58 83° 286° (WNW) 16:25:46 436.000
UKube-1 16 Jan 16:24:02 16:26:20 14° 302° (WNW) 16:28:38 .
XW-2F 16 Jan 16:36:04 16:39:01 22° 65° (ENE) 16:41:59 145.980 - 146.000
XW-2D 16 Jan 16:40:42 16:43:56 26° 67° (ENE) 16:47:11 145.860 - 145.880
PCSat 16 Jan 16:42:03 16:43:27 11° 12° (NNE) 16:44:53 145.827
CUBESAT XI-V 16 Jan 16:43:33 16:48:13 90° 310° (NW) 16:52:50 437.345
KAITUO 1B 16 Jan 16:43:56 16:46:46 20° 65° (ENE) 16:49:36 145.475/437.950
ITAMSAT 1 16 Jan 16:47:27 16:50:25 15° 272° (W) 16:53:24 435.822/435.867
MOZHAYETS 4 16 Jan 16:55:32 16:59:09 23° 298° (WNW) 17:02:44
XW-2B 16 Jan 16:57:41 17:01:15 38° 70° (ENE) 17:04:50 145.730 - 145.750
CUBEBUG 2 16 Jan 16:58:24 16:59:13 10° 55° (NE) 17:00:03 437.445
NUDT-PHONESAT 16 Jan 17:04:16 17:07:34 30° 69° (ENE) 17:10:54 437.300
RS-15 16 Jan 17:10:29 17:22:24 69° 44° (NE) 17:33:38 29.354- 29.394
ITUPSAT 1 16 Jan 17:10:56 17:15:05 29° 296° (WNW) 17:19:12 437.325
LilacSat-2 16 Jan 17:18:12 17:22:03 72° 75° (ENE) 17:25:56 437.200
DOVE 4 16 Jan 17:22:12 17:25:27 20° 267° (W) 17:28:38 437.250
KKS-1 16 Jan 17:25:33 17:29:44 39° 98° (E) 17:33:55 437.445
XW-2C 16 Jan 17:27:19 17:31:10 84° 76° (ENE) 17:35:02 145.795 - 145.815
SEEDS 16 Jan 17:36:35 17:39:46 21° 64° (ENE) 17:42:57 437.485
HO-68 16 Jan 17:37:14 17:44:09 55° 65° (ENE) 17:51:06 435.675
CUTE 1.7 + AOD 2 16 Jan 17:37:49 17:41:39 33° 68° (ENE) 17:45:30 437.475
CUTE-I 16 Jan 17:39:33 17:44:53 88° 74° (ENE) 17:50:15 437.470
ZACube-1 16 Jan 17:50:07 17:51:29 11° 56° (NE) 17:52:51 437.345
BEESAT 16 Jan 17:55:43 17:57:59 13° 305° (NW) 18:00:14 436.000
STARS 16 Jan 17:56:47 18:00:49 34° 97° (E) 18:04:50 437.465
AO-73 16 Jan 17:59:43 18:01:33 12° 57° (ENE) 18:03:24 145.935
XW-2F 16 Jan 18:09:25 18:12:56 34° 263° (W) 18:16:27 145.980 - 146.000
XW-2D 16 Jan 18:14:42 18:18:01 28° 265° (W) 18:21:22 145.860 - 145.880
KAITUO 1B 16 Jan 18:17:01 18:20:31 36° 263° (W) 18:24:03 145.475/437.950
BEESAT 3 16 Jan 18:20:36 18:23:52 24° 38° (NE) 18:27:05 437.485
CUBESAT XI-V 16 Jan 18:22:39 18:24:53 14° 303° (WNW) 18:27:07 437.345
PCSat 16 Jan 18:24:25 18:28:54 25° 37° (NE) 18:33:22 145.827
CUBEBUG 2 16 Jan 18:30:40 18:34:58 73° 74° (ENE) 18:39:27 437.445
XW-2B 16 Jan 18:32:44 18:35:33 19° 268° (W) 18:38:23 145.730 - 145.750
Oscar 11 16 Jan 18:37:38 18:40:33 18° 61° (ENE) 18:43:28 .
NUDT-PHONESAT 16 Jan 18:38:25 18:41:25 23° 266° (W) 18:44:27 437.300
XW-2A 16 Jan 18:46:31 18:49:40 35° 70° (ENE) 18:52:50 145.665 - 145.685
UWE-3 16 Jan 18:47:03 18:51:23 63° 73° (ENE) 18:55:52 435.000/436.395/437.385
BEESAT 2 16 Jan 18:55:42 18:58:39 19° 33° (NNE) 19:01:35 435.950
LilacSat-2 16 Jan 18:55:48 18:56:48 11° 272° (W) 18:57:46 437.200
KKS-1 16 Jan 19:02:27 19:06:07 26° 296° (WNW) 19:09:46 437.445
AO-85 16 Jan 19:02:34 19:04:36 13° 18° (NNE) 19:06:43 145.980
NO-84 16 Jan 19:04:09 19:06:50 32° 139° (SE) 19:09:26 435.350 FM
AAUSAT CUBESAT 2 16 Jan 19:08:41 19:12:50 78° 77° (ENE) 19:16:59 437.432
SEEDS 16 Jan 19:11:07 19:15:10 44° 262° (W) 19:19:14 437.485
STRAND 1 16 Jan 19:11:46 19:16:18 30° 95° (E) 19:20:49 437.568
CUTE 1.7 + AOD 2 16 Jan 19:13:51 19:17:30 27° 266° (W) 19:21:11 437.475
ZACube-1 16 Jan 19:22:32 19:26:56 77° 75° (ENE) 19:31:29 437.345
CUTE-I 16 Jan 19:22:51 19:25:39 14° 273° (W) 19:28:28 437.470
RS-15 16 Jan 19:23:36 19:34:16 44° 250° (WSW) 19:44:27 29.354- 29.394
HO-68 16 Jan 19:25:44 19:32:10 35° 265° (W) 19:38:38 435.675
AO-73 16 Jan 19:32:35 19:37:01 85° 76° (ENE) 19:41:34 145.935
STARS 16 Jan 19:33:16 19:37:04 29° 295° (WNW) 19:40:51 437.465
BEESAT 3 16 Jan 19:57:48 20:01:38 51° 237° (WSW) 20:05:22 437.485
PCSat 16 Jan 20:07:27 20:12:54 78° 239° (WSW) 20:18:18 145.827
CUBEBUG 2 16 Jan 20:10:05 20:12:10 13° 273° (W) 20:14:17 437.445
Oscar 11 16 Jan 20:11:58 20:16:16 59° 259° (W) 20:20:36 .
XW-2A 16 Jan 20:20:13 20:22:29 17° 268° (W) 20:24:46 145.665 - 145.685
UWE-3 16 Jan 20:25:37 20:28:18 16° 272° (W) 20:31:02 435.000/436.395/437.385
FO-29 16 Jan 20:32:47 20:38:06 63° 101° (ESE) 20:43:13 435.910
BEESAT 2 16 Jan 20:32:49 20:36:52 80° 235° (SW) 20:40:50 435.950
DELFI C3 16 Jan 20:34:33 20:38:19 49° 72° (ENE) 20:42:07 145.870
NO-84 16 Jan 20:41:15 20:43:57 36° 337° (NNW) 20:46:36 435.350 FM
AO-85 16 Jan 20:42:00 20:46:23 34° 41° (NE) 20:51:02 145.980
Max Valier Satellite 16 Jan 20:43:59 20:47:30 41° 71° (ENE) 20:51:03 145.860
AAUSAT CUBESAT 2 16 Jan 20:47:34 20:48:49 11° 273° (W) 20:50:03 437.432
TIGRISAT 16 Jan 20:48:42 20:50:30 12° 86° (E) 20:52:17 435.000
STRAND 1 16 Jan 20:50:47 20:55:35 41° 293° (WNW) 21:00:21 437.568
UNISAT 6 16 Jan 21:01:28 21:04:37 18° 90° (E) 21:07:46 437.425
ZACube-1 16 Jan 21:01:46 21:03:48 13° 273° (W) 21:05:51 437.345
AO-73 16 Jan 21:12:22 21:13:54 11° 274° (W) 21:15:26 145.935
EO-88 16 Jan 21:15:00 21:18:37 62° 74° (ENE) 21:22:15 145.990 - 145.960
LO-87 16 Jan 21:20:27 21:21:16 11° 60° (ENE) 21:22:07 145.935 - 145.965
ESTCUBE 1 16 Jan 21:40:23 21:43:38 20° 61° (ENE) 21:46:53 437.505/2401.250
PCSat 16 Jan 21:53:01 21:55:23 13° 257° (WSW) 21:57:44 145.827
DELFI C3 16 Jan 22:10:54 22:13:20 16° 269° (W) 22:15:47 145.870
FO-29 16 Jan 22:18:51 22:22:44 21° 303° (WNW) 22:26:31 435.910
Max Valier Satellite 16 Jan 22:18:59 22:21:30 17° 268° (W) 22:24:03 145.860
NO-84 16 Jan 22:19:30 22:21:40 19° 359° (N) 22:23:50 435.350 FM
AO-85 16 Jan 22:22:16 22:27:00 49° 239° (WSW) 22:32:01 145.980
TIGRISAT 16 Jan 22:23:06 22:27:49 89° 292° (WNW) 22:32:32 435.000
YUBILEINY 16 Jan 22:29:34 22:36:38 28° 80° (E) 22:43:41 435.215
UNISAT 6 16 Jan 22:37:04 22:41:43 62° 287° (WNW) 22:46:21 437.425
SPROUT 16 Jan 22:38:59 22:41:52 18° 61° (ENE) 22:44:46 437.525
AIST 2D 16 Jan 22:41:50 22:44:06 16° 91° (E) 22:46:20 435.315
PRISM 16 Jan 22:46:53 22:50:45 40° 99° (E) 22:54:35 437.425
ISS 16 Jan 22:47:42 22:50:27 25° 142° (SE) 22:53:13 437.550
LO-87 16 Jan 22:50:34 22:54:07 73° 258° (WSW) 22:57:42 145.935 - 145.965
EO-88 16 Jan 22:51:31 22:52:38 11° 271° (W) 22:53:46 145.990 - 145.960
nSIGHT-1 16 Jan 22:54:34 22:57:31 37° 147° (SSE) 23:00:30 .
ESTCUBE 1 16 Jan 23:15:35 23:20:03 56° 259° (W) 23:24:32 437.505/2401.250
EO-79 16 Jan 23:27:12 23:30:15 19° 91° (E) 23:33:17 145.935-145.965
DUCHIFAT 1 16 Jan 23:32:42 23:35:24 16° 90° (E) 23:38:05 145.980
VELOX 1 16 Jan 23:37:37 23:41:42 39° 68° (ENE) 23:45:48 145.980
NO-84 16 Jan 23:56:48 23:59:25 31° 20° (NNE) 00:02:05 435.350 FM
POLYITAN 1 17 Jan 00:00:07 00:04:10 39° 98° (E) 00:08:11 437.675
TIGRISAT 17 Jan 00:01:27 00:03:49 14° 303° (WNW) 00:06:10 435.000
DX 1 17 Jan 00:10:34 00:13:45 20° 62° (ENE) 00:16:56 434.975-435.025
UKube-1 17 Jan 00:10:43 00:12:48 13° 57° (ENE) 00:14:54 .
SPROUT 17 Jan 00:13:12 00:17:21 55° 259° (W) 00:21:33 437.525
AIST 2D 17 Jan 00:14:11 00:17:25 36° 289° (WNW) 00:20:38 435.315
NANOSAT C BR1 17 Jan 00:20:29 00:24:42 56° 101° (E) 00:28:54 145.865
PRISM 17 Jan 00:22:40 00:25:46 21° 297° (WNW) 00:28:52 437.425
ISS 17 Jan 00:23:27 00:26:42 72° 340° (NNW) 00:29:59 437.550
YUBILEINY 17 Jan 00:23:47 00:32:37 75° 282° (WNW) 00:41:28 435.215
QB50P2 17 Jan 00:29:12 00:33:31 87° 101° (ESE) 00:37:49 145.880/145.840
nSIGHT-1 17 Jan 00:30:31 00:33:38 55° 346° (NNW) 00:36:47 .
Oscar 19 17 Jan 00:41:06 00:44:03 15° 88° (E) 00:46:59 437.125/150
50 SAT 17 Jan 00:42:37 00:45:16 27° 69° (ENE) 00:47:57 437.505
AO-91 17 Jan 00:45:19 00:47:57 16° 92° (E) 00:50:44 145.960
MOZHAYETS 4 17 Jan 00:49:45 00:50:54 11° 54° (NE) 00:52:03
BUGSAT 1 17 Jan 00:53:03 00:56:39 27° 95° (E) 01:00:16 437.445
EO-79 17 Jan 01:02:08 01:06:16 49° 289° (WNW) 01:10:24 145.935-145.965
DUCHIFAT 1 17 Jan 01:07:13 01:11:24 56° 288° (WNW) 01:15:34 145.980
ITUPSAT 1 17 Jan 01:09:05 01:10:30 11° 53° (NE) 01:11:52 437.325
VELOX 1 17 Jan 01:14:40 01:18:16 24° 266° (W) 01:21:52 145.980
Gurwin Techsat 1B 17 Jan 01:25:50 01:30:25 28° 94° (E) 01:34:58 435.225
NO-84 17 Jan 01:33:51 01:36:38 43° 219° (SW) 01:39:31 435.350 FM
POLYITAN 1 17 Jan 01:36:15 01:39:45 24° 296° (WNW) 01:43:13 437.675
O/OREOS (USA 219) 17 Jan 01:41:07 01:45:35 61° 112° (ESE) 01:50:02 437.305
UKube-1 17 Jan 01:43:55 01:48:12 82° 254° (WSW) 01:52:32 .
DX 1 17 Jan 01:45:24 01:49:36 49° 259° (W) 01:53:50 434.975-435.025
BEESAT 17 Jan 01:49:16 01:53:04 24° 62° (ENE) 01:56:54 436.000
NANOSAT C BR1 17 Jan 01:57:07 02:00:00 18° 299° (WNW) 02:02:53 145.865
ISS 17 Jan 02:00:19 02:03:28 41° 0° (N) 02:06:36 437.550
AO-7 17 Jan 02:00:39 02:04:03 13° 83° (E) 02:07:25 .
QB50P2 17 Jan 02:06:48 02:08:39 13° 302° (WNW) 02:10:31 145.880/145.840
nSIGHT-1 17 Jan 02:07:05 02:10:08 42° 5° (N) 02:13:12 .
CUBESAT XI-V 17 Jan 02:14:22 02:17:36 19° 60° (ENE) 02:20:51 437.345
50 SAT 17 Jan 02:14:55 02:17:03 17° 266° (W) 02:19:11 437.505
Oscar 19 17 Jan 02:18:48 02:24:02 82° 285° (WNW) 02:29:11 437.125/150
AO-91 17 Jan 02:20:35 02:24:39 59° 287° (WNW) 02:29:10 145.960
MOZHAYETS 4 17 Jan 02:22:35 02:27:11 70° 73° (ENE) 02:31:50
YUBILEINY 17 Jan 02:25:10 02:31:11 20° 306° (NW) 02:37:14 435.215
BUGSAT 1 17 Jan 02:28:13 02:32:02 33° 292° (WNW) 02:35:51 437.445
ITUPSAT 1 17 Jan 02:42:41 02:47:25 68° 72° (ENE) 02:52:11 437.325
Gurwin Techsat 1B 17 Jan 03:05:29 03:10:33 46° 293° (WNW) 03:15:35 435.225
ITAMSAT 1 17 Jan 03:15:05 03:19:01 21° 92° (E) 03:22:55 435.822/435.867
O/OREOS (USA 219) 17 Jan 03:22:01 03:25:24 20° 312° (NW) 03:28:46 437.305
BEESAT 17 Jan 03:25:58 03:30:34 48° 261° (W) 03:35:12 436.000
ISS 17 Jan 03:36:56 03:40:13 74° 20° (NNE) 03:43:29 437.550
nSIGHT-1 17 Jan 03:43:18 03:46:30 82° 204° (SSW) 03:49:41 .
CUBESAT XI-V 17 Jan 03:49:51 03:54:31 64° 259° (W) 03:59:12 437.345
AO-7 17 Jan 03:50:16 03:58:35 61° 104° (ESE) 04:06:49 .
Oscar 19 17 Jan 03:59:47 04:02:33 15° 306° (NW) 04:05:17 437.125/150
MOZHAYETS 4 17 Jan 04:02:11 04:04:50 15° 271° (W) 04:07:32
ITUPSAT 1 17 Jan 04:22:46 04:25:44 16° 270° (W) 04:28:43 437.325
KKS-1 17 Jan 04:26:35 04:30:54 56° 71° (ENE) 04:35:15 437.445
ITAMSAT 1 17 Jan 04:53:45 04:58:51 59° 290° (WNW) 05:03:57 435.822/435.867
STARS 17 Jan 04:56:21 05:00:31 46° 69° (ENE) 05:04:42 437.465
STRAND 1 17 Jan 04:56:26 04:57:43 11° 51° (NE) 04:59:00 437.568
M-CUBED/EXP-1 PRIME 17 Jan 05:06:19 05:09:39 41° 104° (ESE) 05:12:50 437.505
ISS 17 Jan 05:13:42 05:16:27 25° 218° (SW) 05:19:12 437.550
DOVE 4 17 Jan 05:15:11 05:19:26 75° 102° (ESE) 05:23:51 437.250
nSIGHT-1 17 Jan 05:20:13 05:22:16 16° 223° (SW) 05:24:18 .
XW-2F 17 Jan 05:38:09 05:40:47 18° 92° (E) 05:43:23 145.980 - 146.000
XW-2D 17 Jan 05:43:20 05:46:24 23° 94° (E) 05:49:25 145.860 - 145.880
AO-7 17 Jan 05:43:28 05:51:00 39° 305° (NW) 05:58:31 .
KAITUO 1B 17 Jan 05:44:57 05:47:22 16° 91° (E) 05:49:45 145.475/437.950
CUTE-I 17 Jan 05:53:23 05:57:50 27° 93° (E) 06:02:17 437.470
SO-50 17 Jan 05:54:57 05:57:49 17° 111° (ESE) 06:00:42 436.795
XW-2B 17 Jan 06:00:28 06:03:56 33° 96° (E) 06:07:21 145.730 - 145.750
NUDT-PHONESAT 17 Jan 06:04:12 06:07:18 25° 95° (E) 06:10:21 437.300
KKS-1 17 Jan 06:04:52 06:07:48 17° 269° (W) 06:10:45 437.445
CUBEBUG 2 17 Jan 06:19:04 06:21:31 14° 87° (E) 06:23:58 437.445
LilacSat-2 17 Jan 06:21:57 06:25:45 66° 101° (E) 06:29:31 437.200
XW-2C 17 Jan 06:30:16 06:34:04 77° 102° (ESE) 06:37:49 145.795 - 145.815
STRAND 1 17 Jan 06:30:53 06:35:53 61° 71° (ENE) 06:40:56 437.568
STARS 17 Jan 06:33:50 06:37:05 20° 267° (W) 06:40:21 437.465
UWE-3 17 Jan 06:35:12 06:36:38 11° 85° (E) 06:38:03 435.000/436.395/437.385
ITAMSAT 1 17 Jan 06:36:00 06:37:17 11° 310° (NW) 06:38:34 435.822/435.867
M-CUBED/EXP-1 PRIME 17 Jan 06:41:30 06:43:45 16° 304° (NW) 06:45:56 437.505
FO-29 17 Jan 06:47:28 06:53:58 46° 67° (ENE) 06:59:47 435.910
HO-68 17 Jan 06:48:28 06:55:10 41° 97° (E) 07:01:49 435.675
SEEDS 17 Jan 06:51:28 06:54:50 23° 93° (E) 06:58:10 437.485
CUTE 1.7 + AOD 2 17 Jan 06:54:20 06:58:19 39° 97° (E) 07:02:16 437.475
DOVE 4 17 Jan 06:54:30 06:56:39 14° 300° (WNW) 06:58:49 437.250
ZACube-1 17 Jan 07:08:53 07:11:01 13° 87° (E) 07:13:07 437.345
XW-2F 17 Jan 07:11:32 07:15:03 38° 290° (WNW) 07:18:32 145.980 - 146.000
XW-2D 17 Jan 07:17:14 07:20:36 31° 291° (WNW) 07:23:55 145.860 - 145.880
KAITUO 1B 17 Jan 07:18:01 07:21:33 41° 289° (WNW) 07:25:01 145.475/437.950
AO-73 17 Jan 07:18:20 07:20:48 14° 88° (E) 07:23:13 145.935
CUTE-I 17 Jan 07:33:00 07:38:07 49° 292° (WNW) 07:43:13 437.470
SO-50 17 Jan 07:33:15 07:37:43 72° 310° (NW) 07:42:18 436.795
XW-2B 17 Jan 07:34:59 07:37:55 22° 295° (WNW) 07:40:51 145.730 - 145.750
XW-2A 17 Jan 07:37:06 07:39:49 22° 94° (E) 07:42:31 145.665 - 145.685
NUDT-PHONESAT 17 Jan 07:37:56 07:41:06 27° 292° (WNW) 07:44:13 437.300
AO-7 17 Jan 07:38:16 07:41:28 13° 329° (NNW) 07:44:40 .
RS-15 17 Jan 07:39:55 07:49:28 28° 101° (ESE) 07:58:54 29.354- 29.394
TIGRISAT 17 Jan 07:50:25 07:53:07 16° 59° (ENE) 07:55:53 435.000
CUBEBUG 2 17 Jan 07:53:55 07:58:40 80° 285° (WNW) 08:03:26 437.445
Oscar 11 17 Jan 07:56:11 07:59:25 20° 92° (E) 08:02:38 .
LilacSat-2 17 Jan 07:57:47 07:59:31 13° 300° (WNW) 08:01:15 437.200
XW-2C 17 Jan 08:06:28 08:07:39 11° 301° (WNW) 08:08:51 145.795 - 145.815
